Amateur Radio Satellites - All Passes

Search period start: 20 June 2013 13:42
Search period end: 21 June 2013 13:42
Location: Unspecified, 0.0000°N, 1.0000°E

Satellite Date Start Highest point End Downlink Frequencies (MHz)
Time Altitude Azimuth
ISS 20 Jun 14:33:20 14:36:19 30° 305° (NW) 14:39:15 145.800 FM
UOSAT-12 20 Jun 14:42:33 14:45:36 18° 68° (ENE) 14:48:39 437.025 FM, 437.400 FM
Oscar 19 20 Jun 14:43:28 14:47:39 25° 78° (ENE) 14:51:49 437.125 CW, 437.150 USB
ITAMSAT 1 20 Jun 15:09:54 15:14:44 40° 77° (ENE) 15:19:33 435.822 SSB
AO-27 20 Jun 15:11:12 15:16:06 42° 77° (ENE) 15:20:59 436.795 MHz FM
Oscar 16 20 Jun 15:27:41 15:32:53 76° 258° (WSW) 15:38:03 437.025 USB, Beacon 2401.1428
AO-Echo 20 Jun 15:39:20 15:42:59 22° 78° (ENE) 15:46:36 ?
Uribyol 2 20 Jun 15:42:49 15:48:01 76° 257° (WSW) 15:53:13 436.500 FM
Uosat F 20 Jun 16:01:27 16:03:15 12° 77° (ENE) 16:05:02 435.120 FM
UOSAT-12 20 Jun 16:21:55 16:25:31 23° 248° (WSW) 16:29:07 437.025 FM, 437.400 FM
Oscar 19 20 Jun 16:23:00 16:26:44 20° 257° (WSW) 16:30:28 437.125 CW, 437.150 USB
KITSAT 1 20 Jun 16:36:32 16:44:14 50° 110° (ESE) 16:51:55 435.175 FM
Gurwin Techsat 1B 20 Jun 16:51:50 16:57:00 52° 78° (ENE) 17:02:07 435.225 FM
ITAMSAT 1 20 Jun 16:51:56 16:53:57 12° 257° (WSW) 16:55:58 435.822 SSB
AO-27 20 Jun 16:53:48 16:55:20 11° 257° (WSW) 16:56:52 436.795 MHz FM
PANSAT 20 Jun 17:15:47 17:19:32 44° 150° (SSE) 17:23:16 not established
AO-Echo 20 Jun 17:18:28 17:21:32 17° 257° (WSW) 17:24:35 ?
Uosat F 20 Jun 17:37:10 17:41:47 38° 257° (WSW) 17:46:23 435.120 FM
TMSAT-1 20 Jun 17:50:33 17:55:41 52° 258° (WSW) 18:00:49 436.925 FM
MaSat-1 20 Jun 18:01:49 18:03:29 11° 112° (ESE) 18:05:06 437.345 MHz
AO-7 20 Jun 18:20:05 18:28:20 70° 74° (ENE) 18:36:35 29.400 - 29.500 MHz
KITSAT 1 20 Jun 18:33:49 18:39:19 20° 291° (WNW) 18:44:51 435.175 FM
STRAND 1 20 Jun 18:52:30 18:53:30 11° 103° (ESE) 18:54:30 ?
PANSAT 20 Jun 18:56:35 18:59:50 25° 331° (NNW) 19:03:04 not established
AO-40 20 Jun 19:04:07 02:53:19 90° 358° (N) 09:27:28 Beacon 2401.320
MaSat-1 20 Jun 19:38:34 19:45:45 74° 286° (WNW) 19:51:42 437.345 MHz
Hamsat 20 Jun 20:00:09 20:03:43 26° 78° (ENE) 20:07:18 145.90 MHz
AO-7 20 Jun 20:16:50 20:20:41 14° 253° (WSW) 20:24:34 29.400 - 29.500 MHz
STRAND 1 20 Jun 20:27:33 20:32:24 44° 283° (WNW) 20:37:16 ?
JAS-1B 20 Jun 20:37:14 20:45:27 54° 78° (ENE) 20:52:17 435.800 - 435.900 CW/SSB
Saudisat 1A 20 Jun 20:42:44 20:45:14 15° 112° (ESE) 20:47:45 436.775 MHz
Hamsat 20 Jun 21:37:46 21:39:32 12° 258° (WSW) 21:41:18 145.90 MHz
SO-67 20 Jun 21:41:47 21:45:01 32° 259° (W) 21:48:14 435.3500 MHz FM
JAS-2 20 Jun 21:44:35 21:48:00 14° 78° (ENE) 21:51:20 435.800 - 435.900 CW/SSB, 435.910 FM
RS-15 20 Jun 22:13:01 22:21:58 29° 69° (ENE) 22:30:58 29.354 - 29.394 USB, Beacon 29.352 USB
HO-68 20 Jun 22:19:05 22:25:18 33° 75° (ENE) 22:31:30 435.675 MHz FM
Saudisat 1A 20 Jun 22:20:59 22:24:40 25° 292° (WNW) 22:28:23 436.775 MHz
JAS-1B 20 Jun 22:30:01 22:35:15 18° 252° (WSW) 22:40:02 435.800 - 435.900 CW/SSB
OPAL 20 Jun 23:17:06 23:19:06 12° 76° (ENE) 23:21:04 ?
Oscar 11 20 Jun 23:19:23 23:23:43 69° 78° (ENE) 23:28:01 145.825 FM, Beacon 2401.500 USB
JAS-2 20 Jun 23:24:55 23:32:45 70° 257° (WSW) 23:40:10 435.800 - 435.900 CW/SSB, 435.910 FM
Sapphire 20 Jun 23:27:44 23:30:28 14° 110° (ESE) 23:33:11 437.095 MHz 1200 baud AX-25 AFSK
SO-50 20 Jun 23:41:29 23:43:54 14° 113° (ESE) 23:46:18 436.795 FM
HO-68 21 Jun 00:06:54 00:12:40 27° 255° (WSW) 00:18:27 435.675 MHz FM
RS-15 21 Jun 00:23:40 00:33:49 46° 249° (WSW) 00:44:19 29.354 - 29.394 USB, Beacon 29.352 USB
PCSat 21 Jun 00:33:37 00:39:02 88° 289° (WNW) 00:44:25 145.825 MHz
OPAL 21 Jun 00:52:58 00:57:44 39° 256° (WSW) 01:02:25 ?
Sapphire 21 Jun 01:08:42 01:13:38 37° 289° (WNW) 01:18:35 437.095 MHz 1200 baud AX-25 AFSK
SO-50 21 Jun 01:20:00 01:24:18 32° 292° (WNW) 01:28:35 436.795 FM
ISS 21 Jun 02:08:31 02:11:42 48° 235° (SW) 02:14:56 145.800 FM
Oscar 16 21 Jun 02:24:27 02:27:42 17° 103° (ESE) 02:30:57 437.025 USB, Beacon 2401.1428
Uribyol 2 21 Jun 02:40:27 02:43:51 18° 103° (ESE) 02:47:15 436.500 FM
UOSAT-12 21 Jun 02:52:13 02:56:06 29° 112° (ESE) 02:59:58 437.025 FM, 437.400 FM
Oscar 19 21 Jun 03:16:24 03:21:27 64° 102° (ESE) 03:26:32 437.125 CW, 437.150 USB
ITAMSAT 1 21 Jun 03:44:45 03:49:56 76° 283° (WNW) 03:55:07 435.822 SSB
AO-27 21 Jun 03:46:16 03:51:26 71° 283° (WNW) 03:56:37 436.795 MHz FM
Oscar 16 21 Jun 04:02:28 04:06:48 28° 282° (WNW) 04:11:09 437.025 USB, Beacon 2401.1428
AO-Echo 21 Jun 04:07:06 04:12:18 59° 102° (ESE) 04:17:33 ?
Uribyol 2 21 Jun 04:18:43 04:23:04 28° 283° (WNW) 04:27:26 436.500 FM
Uosat F 21 Jun 04:28:47 04:33:06 29° 103° (ESE) 04:37:24 435.120 FM
UOSAT-12 21 Jun 04:34:03 04:36:01 13° 293° (WNW) 04:37:58 437.025 FM, 437.400 FM
KITSAT 1 21 Jun 04:44:16 04:52:16 65° 70° (ENE) 05:00:15 435.175 FM
TMSAT-1 21 Jun 04:49:44 04:54:14 29° 103° (ESE) 04:58:44 436.925 FM
AO-7 21 Jun 04:59:24 05:02:26 12° 107° (ESE) 05:05:26 29.400 - 29.500 MHz
PANSAT 21 Jun 05:04:29 05:08:14 47° 30° (NNE) 05:12:00 not established
Gurwin Techsat 1B 21 Jun 05:30:24 05:35:33 54° 282° (WNW) 05:40:44 435.225 FM
Uosat F 21 Jun 06:08:34 06:11:38 16° 283° (WNW) 06:14:43 435.120 FM
TMSAT-1 21 Jun 06:30:24 06:33:54 18° 283° (WNW) 06:37:24 436.925 FM
KITSAT 1 21 Jun 06:43:15 06:47:24 15° 249° (WSW) 06:51:35 435.175 FM
PANSAT 21 Jun 06:45:23 06:48:33 23° 209° (SSW) 06:51:44 not established
AO-7 21 Jun 06:46:27 06:54:45 76° 286° (WNW) 07:03:04 29.400 - 29.500 MHz
STRAND 1 21 Jun 07:22:04 07:26:22 28° 77° (ENE) 07:30:40 ?
MaSat-1 21 Jun 08:07:51 08:10:03 17° 247° (WSW) 08:12:35 437.345 MHz
Hamsat 21 Jun 08:08:03 08:11:56 34° 101° (ESE) 08:15:48 145.90 MHz
JAS-1B 21 Jun 08:44:20 08:51:12 61° 105° (ESE) 08:59:27 435.800 - 435.900 CW/SSB
Saudisat 1A 21 Jun 08:48:55 08:52:20 22° 67° (ENE) 08:55:43 436.775 MHz
STRAND 1 21 Jun 09:02:00 09:05:18 17° 257° (WSW) 09:08:36 ?
SO-67 21 Jun 09:29:15 09:32:44 54° 281° (W) 09:36:14 435.3500 MHz FM
RS-15 21 Jun 09:54:45 10:04:25 27° 112° (ESE) 10:13:50 29.354 - 29.394 USB, Beacon 29.352 USB
HO-68 21 Jun 10:10:58 10:16:51 28° 105° (ESE) 10:22:43 435.675 MHz FM
Saudisat 1A 21 Jun 10:29:11 10:31:45 15° 248° (WSW) 10:34:19 436.775 MHz
JAS-1B 21 Jun 10:38:30 10:41:53 14° 280° (W) 10:45:31 435.800 - 435.900 CW/SSB
JAS-2 21 Jun 10:59:10 11:04:16 61° 103° (ESE) 11:09:43 435.800 - 435.900 CW/SSB, 435.910 FM
PCSat 21 Jun 11:28:31 11:32:17 19° 70° (ENE) 11:36:02 145.825 MHz
Oscar 11 21 Jun 11:28:56 11:33:17 85° 282° (WNW) 11:37:38 145.825 FM, Beacon 2401.500 USB
OPAL 21 Jun 11:46:20 11:50:41 30° 105° (ESE) 11:55:06 ?
SO-50 21 Jun 11:54:07 11:57:38 23° 68° (ENE) 12:01:11 436.795 FM
HO-68 21 Jun 11:58:00 12:04:13 33° 285° (WNW) 12:10:28 435.675 MHz FM
Sapphire 21 Jun 12:01:48 12:06:56 44° 71° (ENE) 12:12:03 437.095 MHz 1200 baud AX-25 AFSK
RS-15 21 Jun 12:04:39 12:16:32 57° 290° (WNW) 12:28:09 29.354 - 29.394 USB, Beacon 29.352 USB
PCSat 21 Jun 13:10:53 13:15:26 28° 251° (WSW) 13:19:59 145.825 MHz
OPAL 21 Jun 13:26:18 13:29:19 16° 284° (WNW) 13:32:23 ?
SO-50 21 Jun 13:35:15 13:38:00 16° 247° (WSW) 13:40:46 436.795 FM

Developed and maintained by Chris Peat, Heavens-Above GmbH. Please read the updated FAQ before sending e-mail. Imprint. DLR
